sat.trackr.live / text

‹ back to catalog

STARLINK-5125

NORAD 53994 · 2022-125AG

PAYLOAD ACTIVE UNKNOWN

§ Identity

Operator
Country
US
Launch date
2022-10-05
Launch site
AFWTR
Launch vehicle
Mass (kg)
RCS (m²)

Purposes: comms

External: N2YO · Heavens-Above · Gunter

§ Orbital elements

Epoch: 2026-05-25T04:37:53.185152Z

Period
95.44 min
Inclination
53.2156°
Eccentricity
0.0001270
Mean motion
15.08829657 rev/d
Perigee alt
538.9 km
Apogee alt
540.7 km
Semi-major
6,917.9 km
B*
-1.0047e-5
RAAN
230.5604°
Arg perigee
88.1608°
Mean anomaly
271.9530°
Rev number
20,101

§ Raw data

STARLINK-51251 53994U 22125AG  26145.19297668 -.00000448  00000+0 -10047-4 0  99912 53994  53.2156 230.5604 0001270  88.1608 271.9530 15.08829657201017

JSON: /api/v1/satellites/53994 · /tle

For live sub-satellite position, see the globe view (requires WebGL).

§ Visibility from observer

Set your observer location to see the next 7 days of passes ≥ 10°. The values pass through the URL so the page stays shareable.

No JS? Fill the form by hand. The geolocation button needs JavaScript.